Home   Weather   Cairns   Past weeks

Flag for Australia Past Weather in Cairns, Queensland, Australia — Yesterday and Last 2 Weeks

Now
82 °F

Passing clouds.


Feels Like: 87 °F
Forecast: 72 / 87 °F
Wind: 14 mph from North

Location: Cairns Airport

Current Time: Sep 29, 2016 at 1:25:14 PM

Latest Report: Sep 29, 2016 at 1:00 PM


Visibility: N/A

Pressure: 29.80 "Hg

Humidity: 70%

Dew Point: 72 °F

Location of CairnsLocation

Past Weather in Cairns — Graph

°F

Cairns Temperature Yesterday

Maximum temperature yesterday: 84 °F (at 9:30 AM)
Minimum temperature yesterday: 73 °F (at 12:00 AM)
Average temperature yesterday: 79 °F

High & Low Weather Summary for the Past Weeks

 TemperatureHumidityPressure
High88 °F (Sep 27, 1:00 PM)100% (Sep 15, 6:30 AM)30.09 "Hg (Sep 15, 6:30 AM)
Low68 °F (Sep 15, 3:30 AM)58% (Sep 14, 3:00 PM)29.77 "Hg (Sep 24, 4:00 PM)
Average77 °F80%29.92 "Hg
* Reported Sep 14 12:00 PM — Sep 29 12:00 PM, Cairns, Weather by CustomWeather, © 2016

Note: Actual official high and low records may vary slightly from our data, if they occured in-between our weather recording intervals... More about our weather records

Advertising

Cairns Weather History for the Previous 24 Hours

Scroll right to see more
 ConditionsComfort  
Time TempWeatherWind HumidityBarometerVisibility
12:00 PM
Thu, Sep 29
84 °FPassing clouds.13 mph70%29.83 "HgN/A
11:30 AM84 °FPassing clouds.14 mph66%29.86 "HgN/A
11:00 AM82 °FPartly sunny.12 mph74%29.86 "HgN/A
10:30 AM81 °FBroken clouds.9 mph74%29.86 "HgN/A
10:00 AM82 °FBroken clouds.12 mph70%29.86 "HgN/A
9:00 AM81 °FBroken clouds.9 mph70%29.86 "HgN/A
8:30 AM79 °FBroken clouds.5 mph79%29.89 "HgN/A
8:00 AM81 °FScattered showers. Broken clouds.6 mph74%29.89 "HgN/A
7:30 AM79 °FScattered showers. Partly sunny.No wind79%29.86 "HgN/A
7:00 AM77 °FPartly sunny.5 mph83%29.86 "HgN/A
6:30 AM77 °FScattered clouds.3 mph83%29.83 "HgN/A
6:00 AM75 °FScattered clouds.No wind89%29.83 "HgN/A
5:30 AM73 °FPassing clouds.No wind94%29.83 "HgN/A
5:00 AM77 °FPassing clouds.3 mph83%29.83 "HgN/A
4:30 AM77 °FPassing clouds.3 mph83%29.83 "HgN/A
4:00 AM77 °FPassing clouds.3 mph79%29.83 "HgN/A
3:00 AM75 °FPassing clouds.3 mph89%29.83 "HgN/A
2:30 AM77 °FPassing clouds.2 mph83%29.83 "HgN/A
2:00 AM75 °FPassing clouds.1 mph89%29.83 "HgN/A
1:30 AM75 °FPassing clouds.3 mph83%29.86 "HgN/A
1:00 AM77 °FPassing clouds.6 mph79%29.86 "HgN/A
12:30 AM79 °FPassing clouds.7 mph74%29.89 "HgN/A
12:00 AM79 °FPassing clouds.7 mph74%29.89 "HgN/A
11:30 PM
Wed, Sep 28
79 °FPassing clouds.7 mph79%29.89 "HgN/A
11:00 PM79 °FScattered showers. Passing clouds.7 mph79%29.89 "HgN/A
10:00 PM79 °FPassing clouds.6 mph74%29.89 "HgN/A
9:00 PM79 °FPassing clouds.7 mph79%29.86 "HgN/A
8:30 PM79 °FPassing clouds.8 mph79%29.86 "HgN/A
8:00 PM79 °FPassing clouds.8 mph79%29.86 "HgN/A
7:30 PM79 °FPassing clouds.7 mph79%29.86 "HgN/A
7:00 PM79 °FPassing clouds.8 mph79%29.86 "HgN/A
6:30 PM79 °FPassing clouds.9 mph74%29.86 "HgN/A
6:00 PM79 °FPassing clouds.10 mph74%29.83 "HgN/A
5:30 PM81 °FPassing clouds.10 mph74%29.83 "HgN/A
5:00 PM82 °FPassing clouds.12 mph70%29.83 "HgN/A
4:30 PM82 °FPassing clouds.12 mph70%29.83 "HgN/A
4:00 PM82 °FPassing clouds.12 mph70%29.83 "HgN/A
3:00 PM84 °FPassing clouds.12 mph70%29.83 "HgN/A
2:00 PM84 °FPassing clouds.13 mph70%29.83 "HgN/A
1:30 PM84 °FPassing clouds.13 mph70%29.86 "HgN/A
1:00 PM84 °FPassing clouds.12 mph66%29.86 "HgN/A
Weather by CustomWeather, © 2016

See weather overviewHow to use our weather pages